{"data":{"norad_id":58559,"intl_designator":"2023-194C","name":"YAOGAN-39 05C","alt_names":[],"object_type":"PAYLOAD","status":"ACTIVE","operator":null,"country":"PRC","launch_date":"2023-12-10","launch_site_code":"XICLF","launch_vehicle":null,"mission":null,"orbit_class":"UNKNOWN","rcs_meters":null,"size_class":null,"mass_kg":null,"dimensions":null,"purposes":[],"wikipedia_slug":null,"has_3d_model":false,"image_url":null,"decayed_at":null,"tle_current":{"epoch":"2026-05-25T05:18:33.312096Z","epoch_age_seconds":66656,"freshness":"FRESH","line1":"1 58559U 23194C   26145.22121889  .00005187  00000+0  25472-3 0  9995","line2":"2 58559  34.9915 224.4515 0013063 197.0417 162.9858 15.17383194136630","mean_motion":15.17383194,"eccentricity":0.0013063,"inclination_deg":34.9915,"raan_deg":224.4515,"arg_perigee_deg":197.0417,"mean_anomaly_deg":162.9858,"bstar":0.00025472,"rev_number":13663,"period_min":94.90022070193,"perigee_km":504.74998249917,"apogee_km":522.75573394276,"semimajor_km":6891.889858221,"source":"CELESTRAK","updated_at":"2026-05-25T13:38:00.832958Z"}}}